Bluffton, MN

12:29 AM CST on January 20, 2017 (GMT -0600)
Wadena Municipal

Weather History for KADC - August, 2012

Change the Weather History Date:

Tuesday, August 21, 2012

  Actual Average Record
Temperature  
Mean Temperature 59 °F -  
Max Temperature 77 °F 76 °F 95 °F (1947)
Min Temperature 41 °F 56 °F 30 °F (2004)
Degree Days  
Heating Degree Days 6    
Growing Degree Days 9 (Base 50)    
Moisture  
Dew Point 48 °F    
Average Humidity 68    
Maximum Humidity 93    
Minimum Humidity 39    
Precipitation  
Precipitation 0.00 in - - ()
Sea Level Pressure  
Sea Level Pressure 30.01 in    
Wind  
Wind Speed 3 mph (SSW)    
Max Wind Speed 13 mph    
Max Gust Speed 17 mph    
Visibility 10 miles    
Events      
Averages and records for this station are not official NWS values.
T = Trace of Precipitation, MM = Missing Value Source: NWS Daily Summary

Daily Weather History Graph

Daily Weather History Graph

Search for Another Location

Airport or City:

Trip Planner

Search our weather history database for the weather conditions in past years. The results will help you decide how hot, cold, wet, or windy it might be!

Date:

Astronomy

Aug. 21, 2012 Rise Set
Actual Time 6:27 AM CDT 8:19 PM CDT
Civil Twilight 5:55 AM CDT 8:51 PM CDT
Nautical Twilight 5:15 AM CDT 9:30 PM CDT
Astronomical Twilight 4:32 AM CDT 10:13 PM CDT
Moon 11:20 AM CDT (8/21) 9:57 PM CDT (8/21)
Length of Visible Light 14h 55m
Length of Day
13h 51m
Waxing Crescent, 19% of the Moon is Illuminated
Aug 21
Waxing Crescent
Aug 24
First Quarter
Aug 31
Full
Sep 8
Last Quarter
Sep 15
New

Hourly Weather History & Observations

Time (CDT) Temp. Windchill Dew Point Humidity Pressure Visibility Wind Dir Wind Speed Gust Speed Precip Events Conditions
12:14 AM 46.4 °F - 44.6 °F 93% 30.02 in 10.0 mi Calm Calm - N/A   Clear
12:35 AM 46.4 °F - 44.6 °F 93% 30.03 in 10.0 mi Calm Calm - N/A   Clear
12:53 AM 46.4 °F - 44.6 °F 93% 30.03 in 10.0 mi Calm Calm - N/A   Clear
1:14 AM 44.6 °F - 42.8 °F 93% 30.03 in 10.0 mi Calm Calm - N/A   Clear
1:35 AM 46.4 °F - 44.6 °F 93% 30.02 in 10.0 mi Calm Calm - N/A   Clear
1:53 AM 44.6 °F - 42.8 °F 93% 30.03 in 10.0 mi Calm Calm - N/A   Clear
2:15 AM 44.6 °F - 42.8 °F 93% 30.02 in 10.0 mi Calm Calm - N/A   Clear
2:34 AM 44.6 °F - 42.8 °F 93% 30.02 in 10.0 mi Calm Calm - N/A   Clear
2:53 AM 42.8 °F - 41.0 °F 93% 30.02 in 10.0 mi Calm Calm - N/A   Clear
3:15 AM 42.8 °F - 41.0 °F 93% 30.03 in 10.0 mi Calm Calm - N/A   Clear
3:35 AM 42.8 °F - 39.2 °F 87% 30.03 in 10.0 mi Calm Calm - N/A   Clear
3:53 AM 42.8 °F - 41.0 °F 93% 30.03 in 10.0 mi Calm Calm - N/A   Clear
4:15 AM 42.8 °F - 41.0 °F 93% 30.03 in 10.0 mi Calm Calm - N/A   Clear
4:35 AM 41.0 °F - 39.2 °F 93% 30.03 in 10.0 mi Calm Calm - N/A   Clear
4:53 AM 42.8 °F - 41.0 °F 93% 30.03 in 10.0 mi Calm Calm - N/A   Clear
5:15 AM 42.8 °F - 39.2 °F 87% 30.03 in 10.0 mi Calm Calm - N/A   Clear
5:35 AM 42.8 °F - 39.2 °F 87% 30.03 in 10.0 mi Calm Calm - N/A   Clear
5:53 AM 42.8 °F - 41.0 °F 93% 30.03 in 10.0 mi Calm Calm - N/A   Clear
6:15 AM 42.8 °F - 41.0 °F 93% 30.04 in 10.0 mi Calm Calm - N/A   Clear
6:35 AM 42.8 °F - 39.2 °F 87% 30.04 in 10.0 mi Calm Calm - N/A   Clear
6:53 AM 42.8 °F 41.1 °F 39.2 °F 87% 30.04 in 10.0 mi NNW 3.5 mph - N/A   Clear
7:15 AM 46.4 °F 45.2 °F 44.6 °F 93% 30.04 in 10.0 mi SSW 3.5 mph - N/A   Clear
7:35 AM 48.2 °F - 46.4 °F 93% 30.04 in 10.0 mi Calm Calm - N/A   Clear
7:53 AM 51.8 °F - 48.2 °F 88% 30.04 in 10.0 mi Calm Calm - N/A   Clear
8:15 AM 55.4 °F - 50.0 °F 82% 30.04 in 10.0 mi SSW 4.6 mph - N/A   Clear
8:33 AM 57.2 °F - 48.2 °F 72% 30.04 in 10.0 mi SSW 6.9 mph - N/A   Clear
8:53 AM 60.8 °F - 50.0 °F 68% 30.04 in 10.0 mi SW 5.8 mph - N/A   Clear
9:15 AM 62.6 °F - 51.8 °F 68% 30.04 in 10.0 mi WSW 6.9 mph - N/A   Clear
9:35 AM 64.4 °F - 51.8 °F 64% 30.04 in 10.0 mi SSW 6.9 mph - N/A   Clear
9:53 AM 66.2 °F - 51.8 °F 60% 30.04 in 10.0 mi SSW 5.8 mph - N/A   Clear
10:15 AM 68.0 °F - 51.8 °F 56% 30.04 in 10.0 mi SW 4.6 mph - N/A   Clear
10:35 AM 69.8 °F - 50.0 °F 49% 30.04 in 10.0 mi SSW 6.9 mph - N/A   Clear
10:53 AM 71.6 °F - 48.2 °F 43% 30.04 in 10.0 mi SSW 8.1 mph - N/A   Clear
11:15 AM 71.6 °F - 48.2 °F 43% 30.04 in 10.0 mi WSW 5.8 mph - N/A   Clear
11:35 AM 71.6 °F - 50.0 °F 46% 30.04 in 10.0 mi SW 9.2 mph - N/A   Clear
11:53 AM 71.6 °F - 50.0 °F 46% 30.04 in 10.0 mi SW 9.2 mph - N/A   Clear
12:15 PM 73.4 °F - 51.8 °F 47% 30.03 in 10.0 mi SSW 8.1 mph - N/A   Clear
12:35 PM 73.4 °F - 51.8 °F 47% 30.03 in 10.0 mi WSW 10.4 mph 17.3 mph N/A   Clear
12:53 PM 75.2 °F - 51.8 °F 44% 30.03 in 10.0 mi WSW 9.2 mph - N/A   Clear
1:15 PM 75.2 °F - 51.8 °F 44% 30.02 in 10.0 mi WSW 6.9 mph - N/A   Clear
1:35 PM 75.2 °F - 50.0 °F 41% 30.02 in 10.0 mi SSW 9.2 mph - N/A   Clear
1:53 PM 75.2 °F - 51.8 °F 44% 30.02 in 10.0 mi WSW 9.2 mph - N/A   Clear
2:15 PM 75.2 °F - 51.8 °F 44% 30.01 in 10.0 mi WSW 10.4 mph - N/A   Clear
2:35 PM 75.2 °F - 51.8 °F 44% 30.01 in 10.0 mi WSW 5.8 mph - N/A   Clear
2:53 PM 77.0 °F - 51.8 °F 41% 30.00 in 10.0 mi SW 9.2 mph - N/A   Clear
3:15 PM 77.0 °F - 50.0 °F 39% 30.00 in 10.0 mi SW 8.1 mph - N/A   Clear
3:35 PM 77.0 °F - 51.8 °F 41% 29.99 in 10.0 mi SW 5.8 mph - N/A   Clear
3:53 PM 77.0 °F - 51.8 °F 41% 29.99 in 10.0 mi SW 9.2 mph 16.1 mph N/A   Clear
4:14 PM 77.0 °F - 50.0 °F 39% 29.99 in 10.0 mi SW 5.8 mph - N/A   Clear
4:53 PM 77.0 °F - 51.8 °F 41% 29.98 in 10.0 mi SW 8.1 mph 17.3 mph N/A   Clear
5:15 PM 77.0 °F - 53.6 °F 44% 29.98 in 10.0 mi South 11.5 mph - N/A   Clear
5:35 PM 77.0 °F - 51.8 °F 41% 29.98 in 10.0 mi SSW 10.4 mph - N/A   Clear
5:53 PM 75.2 °F - 51.8 °F 44% 29.98 in 10.0 mi SSW 12.7 mph - N/A   Clear
6:15 PM 75.2 °F - 53.6 °F 47% 29.97 in 10.0 mi SSW 10.4 mph - N/A   Clear
6:34 PM 75.2 °F - 53.6 °F 47% 29.97 in 10.0 mi SSW 9.2 mph - N/A   Clear
6:53 PM 73.4 °F - 53.6 °F 50% 29.97 in 10.0 mi SSW 8.1 mph - N/A   Clear
7:14 PM 73.4 °F - 53.6 °F 50% 29.96 in 10.0 mi SSW 6.9 mph - N/A   Clear
7:35 PM 71.6 °F - 53.6 °F 53% 29.96 in 10.0 mi SSW 4.6 mph - N/A   Clear
7:53 PM 68.0 °F - 53.6 °F 60% 29.96 in 10.0 mi SSW 3.5 mph - N/A   Clear
8:15 PM 64.4 °F - 53.6 °F 68% 29.96 in 10.0 mi SSW 3.5 mph - N/A   Clear
8:35 PM 62.6 °F - 53.6 °F 72% 29.97 in 10.0 mi Calm Calm - N/A   Clear
8:53 PM 62.6 °F - 53.6 °F 72% 29.97 in 10.0 mi South 4.6 mph - N/A   Clear
9:15 PM 60.8 °F - 51.8 °F 72% 29.97 in 10.0 mi South 5.8 mph - N/A   Clear
9:35 PM 59.0 °F - 51.8 °F 77% 29.97 in 10.0 mi South 4.6 mph - N/A   Clear
9:53 PM 60.8 °F - 51.8 °F 72% 29.96 in 10.0 mi South 3.5 mph - N/A   Clear
10:15 PM 57.2 °F - 51.8 °F 82% 29.96 in 10.0 mi South 5.8 mph - N/A   Clear
10:35 PM 57.2 °F - 51.8 °F 82% 29.95 in 10.0 mi South 6.9 mph - N/A   Clear
10:53 PM 57.2 °F - 51.8 °F 82% 29.95 in 10.0 mi South 4.6 mph - N/A   Clear
11:15 PM 57.2 °F - 51.8 °F 82% 29.95 in 10.0 mi South 4.6 mph - N/A   Clear
11:53 PM 57.2 °F - 51.8 °F 82% 29.94 in 10.0 mi South 3.5 mph - N/A   Clear